| time (UTC) | temp C | wind direction | speed KPH | gust KPH | rain 1hr cm | rain 24hr cm | rain mn cm | humidity % | barometer mb |
| 20260506061552 | 20 | 174 | 6.4 | 14.5 | 0.00 | 0.00 | 0.00 | 67 | 1011.5 |
| 20260506050110 | 21 | 166 | 6.4 | 14.5 | 0.00 | 0.00 | 0.00 | 64 | 1011.9 |
| 20260506044559 | 21 | 180 | 6.4 | 19.3 | 0.00 | 0.00 | 0.00 | 63 | 1012.1 |
| 20260506043053 | 21 | 157 | 6.4 | 17.7 | 0.00 | 0.00 | 0.00 | 63 | 1012.2 |
| 20260506041556 | 21 | 157 | 6.4 | 16.1 | 0.00 | 0.00 | 0.00 | 62 | 1012.1 |
| 20260506040051 | 21 | 136 | 6.4 | 17.7 | 0.00 | 0.00 | 0.00 | 62 | 1012.0 |
| 20260506034553 | 21 | 147 | 6.4 | 14.5 | 0.00 | 0.00 | 0.00 | 61 | 1012.1 |
| 20260506033051 | 21 | 166 | 4.8 | 17.7 | 0.00 | 0.00 | 0.00 | 60 | 1012.5 |
| 20260506031558 | 21 | 153 | 3.2 | 9.7 | 0.00 | 0.00 | 0.00 | 60 | 1012.5 |
| 20260506030105 | 21 | 179 | 1.6 | 11.3 | 0.00 | 0.00 | 0.00 | 60 | 1012.1 |
| 20260506024553 | 21 | 128 | 3.2 | 8.0 | 0.00 | 0.00 | 0.00 | 60 | 1012.6 |
| 20260506023049 | 21 | 157 | 3.2 | 12.9 | 0.00 | 0.00 | 0.00 | 59 | 1012.6 |
| 20260506021553 | 21 | 129 | 3.2 | 19.3 | 0.00 | 0.00 | 0.00 | 59 | 1012.2 |
| 20260506020053 | 21 | 137 | 3.2 | 11.3 | 0.00 | 0.00 | 0.00 | 59 | 1012.0 |
| 20260506014559 | 21 | 159 | 3.2 | 14.5 | 0.00 | 0.00 | 0.00 | 58 | 1011.9 |
| 20260506013053 | 21 | 161 | 4.8 | 17.7 | 0.00 | 0.00 | 0.00 | 58 | 1011.7 |
| 20260506011558 | 21 | 143 | 4.8 | 16.1 | 0.00 | 0.00 | 0.00 | 58 | 1011.6 |
| 20260506010058 | 21 | 107 | 4.8 | 12.9 | 0.00 | 0.00 | 0.00 | 56 | 1011.5 |
| 20260506004627 | 21 | 146 | 4.8 | 12.9 | 0.00 | 0.00 | 0.00 | 56 | 1011.5 |
| 20260506003058 | 21 | 173 | 4.8 | 11.3 | 0.00 | 0.00 | 0.00 | 55 | 1011.6 |
| 20260506001555 | 21 | 139 | 3.2 | 17.7 | 0.00 | 0.00 | 0.00 | 55 | 1011.7 |
| 20260506000057 | 21 | 0 | 0.0 | 3.2 | 0.00 | 0.00 | 0.00 | 55 | 1011.9 |
| 20260505234618 | 21 | 0 | 1.6 | 11.3 | 0.00 | 0.00 | 0.00 | 54 | 1011.8 |
| 20260505233051 | 22 | 171 | 1.6 | 9.7 | 0.00 | 0.00 | 0.00 | 52 | 1011.9 |
| 20260505231602 | 22 | 115 | 1.6 | 11.3 | 0.00 | 0.00 | 0.00 | 52 | 1012.0 |
| 20260505230057 | 21 | 148 | 4.8 | 11.3 | 0.00 | 0.00 | 0.00 | 51 | 1011.8 |
| 20260505224553 | 21 | 156 | 6.4 | 11.3 | 0.00 | 0.00 | 0.00 | 51 | 1011.6 |
| 20260505223103 | 21 | 140 | 0.0 | 11.3 | 0.00 | 0.00 | 0.00 | 55 | 1012.0 |
| 20260505221606 | 21 | 155 | 4.8 | 12.9 | 0.00 | 0.00 | 0.00 | 52 | 1011.7 |
| 20260505220130 | 21 | 142 | 3.2 | 11.3 | 0.00 | 0.00 | 0.00 | 55 | 1011.9 |
| 20260505214609 | 21 | 131 | 4.8 | 24.1 | 0.00 | 0.00 | 0.00 | 54 | 1011.8 |
| 20260505213057 | 22 | 164 | 6.4 | 16.1 | 0.00 | 0.00 | 0.00 | 53 | 1011.9 |
| 20260505211603 | 23 | 163 | 6.4 | 17.7 | 0.00 | 0.00 | 0.00 | 52 | 1012.3 |
| 20260505210052 | 23 | 153 | 1.6 | 12.9 | 0.00 | 0.00 | 0.00 | 47 | 1012.6 |
| 20260505204558 | 23 | 192 | 3.2 | 12.9 | 0.00 | 0.00 | 0.00 | 45 | 1012.5 |
| 20260505203055 | 24 | 144 | 6.4 | 14.5 | 0.00 | 0.00 | 0.00 | 44 | 1012.6 |
| 20260505201607 | 24 | 153 | 6.4 | 14.5 | 0.00 | 0.00 | 0.00 | 49 | 1012.8 |
| 20260505194602 | 25 | 153 | 4.8 | 20.9 | 0.00 | 0.00 | 0.00 | 47 | 1013.1 |
| 20260505193052 | 25 | 161 | 3.2 | 14.5 | 0.00 | 0.00 | 0.00 | 44 | 1013.3 |
| 20260505191555 | 25 | 35 | 9.7 | 19.3 | 0.00 | 0.00 | 0.00 | 43 | 1013.4 |
| 20260505190100 | 25 | 117 | 4.8 | 22.5 | 0.00 | 0.00 | 0.00 | 48 | 1013.4 |
| 20260505184553 | 25 | 107 | 6.4 | 24.1 | 0.00 | 0.00 | 0.00 | 46 | 1013.5 |
| 20260505183055 | 25 | 146 | 14.5 | 32.2 | 0.00 | 0.00 | 0.00 | 43 | 1013.6 |
| 20260505181554 | 25 | 104 | 6.4 | 20.9 | 0.00 | 0.00 | 0.00 | 49 | 1013.9 |
| 20260505174552 | 24 | 143 | 12.9 | 27.4 | 0.00 | 0.00 | 0.00 | 45 | 1014.1 |
| 20260505173053 | 24 | 121 | 9.7 | 24.1 | 0.00 | 0.00 | 0.00 | 46 | 1014.2 |
| 20260505171555 | 23 | 145 | 9.7 | 22.5 | 0.00 | 0.00 | 0.00 | 51 | 1014.6 |
| 20260505170100 | 23 | 169 | 1.6 | 16.1 | 0.00 | 0.00 | 0.00 | 53 | 1015.0 |
| 20260505164600 | 24 | 114 | 4.8 | 12.9 | 0.00 | 0.00 | 0.00 | 53 | 1015.0 |
| 20260505163056 | 24 | 219 | 1.6 | 12.9 | 0.00 | 0.00 | 0.00 | 55 | 1015.3 |
| 20260505161558 | 23 | 161 | 4.8 | 14.5 | 0.00 | 0.00 | 0.00 | 57 | 1015.3 |
| 20260505153051 | 22 | 158 | 3.2 | 9.7 | 0.00 | 0.00 | 0.00 | 62 | 1015.5 |
| 20260505151606 | 21 | 165 | 4.8 | 11.3 | 0.00 | 0.00 | 0.00 | 62 | 1015.5 |
| 20260505124558 | 15 | 0 | 0.0 | 0.0 | 0.00 | 0.00 | 0.00 | 72 | 1015.2 |
| 20260505123053 | 15 | 0 | 0.0 | 0.0 | 0.00 | 0.00 | 0.00 | 71 | 1014.9 |
| 20260505121553 | 15 | 0 | 0.0 | 0.0 | 0.00 | 0.00 | 0.00 | 72 | 1014.7 |
| 20260505120053 | 15 | 0 | 0.0 | 0.0 | 0.00 | 0.00 | 0.00 | 73 | 1014.6 |
| 20260505114550 | 14 | 0 | 0.0 | 0.0 | 0.00 | 0.00 | 0.00 | 72 | 1014.5 |
| 20260505113048 | 14 | 0 | 0.0 | 0.0 | 0.00 | 0.00 | 0.00 | 71 | 1014.3 |
| 20260505111551 | 14 | 0 | 0.0 | 0.0 | 0.00 | 0.00 | 0.00 | 70 | 1014.2 |
| 20260505101553 | 13 | 0 | 0.0 | 4.8 | 0.00 | 0.00 | 0.00 | 70 | 1013.6 |
| 20260505100050 | 13 | 164 | 1.6 | 6.4 | 0.00 | 0.00 | 0.00 | 70 | 1013.6 |
| 20260505094549 | 14 | 138 | 1.6 | 6.4 | 0.00 | 0.00 | 0.00 | 69 | 1013.4 |
| 20260505093048 | 14 | 0 | 0.0 | 6.4 | 0.00 | 0.00 | 0.00 | 68 | 1013.6 |
| 20260505091605 | 15 | 158 | 3.2 | 8.0 | 0.00 | 0.00 | 0.00 | 67 | 1013.5 |
| 20260505090050 | 15 | 0 | 0.0 | 4.8 | 0.00 | 0.00 | 0.00 | 64 | 1013.4 |
| 20260505084552 | 16 | 111 | 3.2 | 9.7 | 0.00 | 0.00 | 0.00 | 63 | 1013.4 |
| 20260505083049 | 16 | 130 | 3.2 | 6.4 | 0.00 | 0.00 | 0.00 | 61 | 1013.6 |
| 20260505081552 | 16 | 147 | 0.0 | 6.4 | 0.00 | 0.00 | 0.00 | 59 | 1013.6 |
| 20260505080057 | 16 | 0 | 0.0 | 0.0 | 0.00 | 0.00 | 0.00 | 59 | 1013.8 |
| 20260505074552 | 16 | 0 | 0.0 | 4.8 | 0.00 | 0.00 | 0.00 | 58 | 1013.8 |
| 20260505073055 | 16 | 0 | 0.0 | 0.0 | 0.00 | 0.00 | 0.00 | 59 | 1013.8 |
| 20260505071555 | 16 | 0 | 0.0 | 0.0 | 0.00 | 0.00 | 0.00 | 58 | 1013.8 |
| 20260505070058 | 16 | 0 | 0.0 | 1.6 | 0.00 | 0.00 | 0.00 | 59 | 1013.9 |